| time (UTC) | temp F | wind direction | speed MPH | gust MPH | rain 1hr in | rain 24hr in | rain mn in | humidity % | barometer mb |
| 20260504050001 | 42 | 278 | 0.0 | 1.0 | 0.00 | 0.00 | 0.00 | 77 | 1011.7 |
| 20260504044558 | 43 | 278 | 0.0 | 1.0 | 0.00 | 0.00 | 0.00 | 77 | 1011.8 |
| 20260504043100 | 43 | 278 | 0.0 | 1.0 | 0.00 | 0.00 | 0.00 | 77 | 1011.8 |
| 20260504041602 | 43 | 278 | 0.0 | 0.0 | 0.00 | 0.00 | 0.00 | 76 | 1011.6 |
| 20260504040054 | 44 | 278 | 0.0 | 1.0 | 0.00 | 0.00 | 0.00 | 74 | 1011.6 |
| 20260504034559 | 44 | 278 | 0.0 | 1.0 | 0.00 | 0.00 | 0.00 | 74 | 1011.7 |
| 20260504033050 | 44 | 278 | 0.0 | 0.0 | 0.00 | 0.00 | 0.00 | 72 | 1011.5 |
| 20260504031549 | 45 | 278 | 0.0 | 0.0 | 0.00 | 0.00 | 0.00 | 71 | 1011.5 |
| 20260504030046 | 46 | 278 | 0.0 | 0.0 | 0.00 | 0.00 | 0.00 | 67 | 1011.4 |
| 20260504024550 | 47 | 278 | 0.0 | 1.0 | 0.00 | 0.00 | 0.00 | 66 | 1011.2 |
| 20260504023044 | 47 | 278 | 0.0 | 1.0 | 0.00 | 0.00 | 0.00 | 63 | 1011.2 |
| 20260504021542 | 48 | 277 | 0.0 | 2.0 | 0.00 | 0.00 | 0.00 | 58 | 1011.1 |
| 20260504020043 | 48 | 284 | 0.0 | 1.0 | 0.00 | 0.00 | 0.00 | 48 | 1011.0 |
| 20260504014541 | 47 | 286 | 0.0 | 1.0 | 0.00 | 0.00 | 0.00 | 49 | 1010.9 |
| 20260504013054 | 47 | 286 | 0.0 | 1.0 | 0.00 | 0.00 | 0.00 | 47 | 1010.8 |
| 20260504011538 | 48 | 286 | 0.0 | 1.0 | 0.00 | 0.00 | 0.00 | 46 | 1010.6 |
| 20260504010040 | 48 | 286 | 0.0 | 1.0 | 0.00 | 0.00 | 0.00 | 46 | 1010.4 |
| 20260504004535 | 48 | 286 | 0.0 | 0.0 | 0.00 | 0.00 | 0.00 | 45 | 1010.2 |
| 20260504003035 | 49 | 286 | 0.0 | 0.0 | 0.00 | 0.00 | 0.00 | 45 | 1010.1 |
| 20260504001538 | 49 | 286 | 0.0 | 0.0 | 0.00 | 0.00 | 0.00 | 45 | 1010.0 |
| 20260504000034 | 50 | 286 | 0.0 | 0.0 | 0.00 | 0.00 | 0.00 | 43 | 1009.8 |
| 20260503234533 | 52 | 286 | 0.0 | 1.0 | 0.00 | 0.00 | 0.00 | 38 | 1009.6 |
| 20260503233033 | 53 | 245 | 0.0 | 4.0 | 0.00 | 0.00 | 0.00 | 37 | 1009.5 |
| 20260503231532 | 54 | 271 | 1.0 | 4.0 | 0.00 | 0.00 | 0.00 | 35 | 1009.5 |
| 20260503230039 | 54 | 56 | 0.0 | 4.0 | 0.00 | 0.00 | 0.00 | 35 | 1009.4 |
| 20260503224531 | 54 | 271 | 1.0 | 4.0 | 0.00 | 0.00 | 0.00 | 34 | 1009.2 |
| 20260503223031 | 55 | 197 | 0.0 | 4.0 | 0.00 | 0.00 | 0.00 | 33 | 1009.2 |
| 20260503221532 | 56 | 11 | 1.0 | 6.0 | 0.00 | 0.00 | 0.00 | 32 | 1008.8 |
| 20260503220030 | 58 | 70 | 2.0 | 6.0 | 0.00 | 0.00 | 0.00 | 31 | 1008.8 |
| 20260503214537 | 58 | 296 | 3.0 | 10.0 | 0.00 | 0.00 | 0.00 | 31 | 1008.5 |
| 20260503213027 | 58 | 317 | 0.0 | 8.0 | 0.00 | 0.00 | 0.00 | 31 | 1008.4 |
| 20260503211526 | 57 | 175 | 1.0 | 7.0 | 0.00 | 0.00 | 0.00 | 32 | 1008.2 |
| 20260503210025 | 58 | 43 | 2.0 | 14.0 | 0.00 | 0.00 | 0.00 | 31 | 1007.9 |
| 20260503204524 | 59 | 291 | 3.0 | 14.0 | 0.00 | 0.00 | 0.00 | 30 | 1007.8 |
| 20260503203032 | 59 | 232 | 3.0 | 11.0 | 0.00 | 0.00 | 0.00 | 29 | 1007.9 |
| 20260503201522 | 59 | 164 | 2.0 | 9.0 | 0.00 | 0.00 | 0.00 | 30 | 1007.7 |
| 20260503200020 | 59 | 27 | 2.0 | 12.0 | 0.00 | 0.00 | 0.00 | 30 | 1007.6 |
| 20260503194518 | 58 | 14 | 2.0 | 6.0 | 0.00 | 0.00 | 0.00 | 31 | 1007.5 |
| 20260503193033 | 57 | 124 | 2.0 | 9.0 | 0.00 | 0.00 | 0.00 | 34 | 1007.5 |
| 20260503191532 | 58 | 49 | 2.0 | 6.0 | 0.00 | 0.00 | 0.00 | 33 | 1007.7 |
| 20260503190025 | 56 | 49 | 1.0 | 5.0 | 0.00 | 0.00 | 0.00 | 36 | 1007.7 |
| 20260503184510 | 55 | 1 | 1.0 | 7.0 | 0.00 | 0.00 | 0.00 | 35 | 1007.8 |
| 20260503183009 | 55 | 7 | 2.0 | 5.0 | 0.00 | 0.00 | 0.00 | 37 | 1007.8 |
| 20260503181507 | 55 | 10 | 3.0 | 9.0 | 0.00 | 0.00 | 0.00 | 39 | 1007.8 |
| 20260503180006 | 53 | 219 | 1.0 | 6.0 | 0.00 | 0.00 | 0.00 | 40 | 1007.8 |
| 20260503174505 | 53 | 321 | 1.0 | 6.0 | 0.00 | 0.00 | 0.00 | 43 | 1007.8 |
| 20260503173005 | 53 | 337 | 3.0 | 9.0 | 0.00 | 0.00 | 0.00 | 43 | 1007.8 |
| 20260503171505 | 53 | 274 | 2.0 | 8.0 | 0.00 | 0.00 | 0.00 | 42 | 1007.8 |
| 20260503081513 | 45 | 43 | 0.0 | 3.0 | 0.00 | 0.01 | 0.00 | 52 | 1008.0 |
| 20260503071504 | 47 | 21 | 1.0 | 4.0 | 0.00 | 0.01 | 0.00 | 47 | 1008.2 |